Regional Weather Roundup
Issued by NWS

Home | Current Version | Previous Version | Text Only | Print | Product List | Glossary Off
Versions: 1 2 3 4 5 6 7 8 9 10 11 12 13 14 15 16 17 18 19 20 21 22 23 24 25 26 27 28 29 30 31 32 33 34 35 36 37 38 39 40 41 42 43 44 45 46 47 48 49 50

000
ASUS43 KFSD 311510
RWRSD

WEATHER ROUNDUP FOR SOUTH DAKOTA
NATIONAL WEATHER SERVICE SIOUX FALLS SD
1000 AM CDT FRI OCT 31 2014

NOTE: "FAIR" INDICATES FEW OR NO CLOUDS BELOW 12,000 FEET WITH NO
SIGNIFICANT WEATHER AND/OR OBSTRUCTIONS TO VISIBILITY.


SDZ001>005-009-010-012>017-311600-
NORTHWEST AND NORTH CENTRAL SOUTH DAKOTA

CITY           SKY/WX    TMP DP  RH WIND       PRES   REMARKS
BUFFALO          N/A     31  29  92 SE25G32   30.21F WCI  17
FAITH            N/A     27  22  81 S24       30.40F WCI  12
MOBRIDGE       MOSUNNY   27  21  78 SE12      30.50F WCI  17
$$

SDZ012>016-024>037-041>051-057-063-072>074-311600-
SOUTHWEST AND SOUTH CENTRAL SOUTH DAKOTA

CITY           SKY/WX    TMP DP  RH WIND       PRES   REMARKS
RAPID CTY ARPT CLOUDY    30  28  92 S22       30.37S FOG     WCI  17
PIERRE         FOG       23  21  92 SE7       30.54S VSB 1/4 WCI  15
CUSTER         MOSUNNY   31  28  89 VRB5      30.32R WCI  26
ELLSWORTH AFB  CLOUDY    30  29  95 S25G33    30.34  FOG     WCI  16
PHILIP         CLOUDY    31  23  72 SE10      30.48S WCI  22
PINE RIDGE     PTSUNNY   30  27  88 S10       30.41S WCI  21
SPEARFISH      FOG       28  28 100 CALM      30.22F VSB<1/4
WINNER         FAIR      26  22  84 SE6       30.55R WCI  19
$$

SDZ004>011-016>023-039-040-311600-
NORTHEAST SOUTH DAKOTA

CITY           SKY/WX    TMP DP  RH WIND       PRES   REMARKS
ABERDEEN       MOSUNNY   22  18  85 E6        30.60S WCI  14
WATERTOWN      SUNNY     22  18  85 N6        30.57R WCI  14
SISSETON         N/A     24  20  84 N7        30.61S WCI  16
$$

SDZ017-020-022-023-036>040-048>070-311600-
SOUTHEAST SOUTH DAKOTA

CITY           SKY/WX    TMP DP  RH WIND       PRES   REMARKS
SIOUX FALLS    MOSUNNY   27  20  75 N8        30.59R WCI  19
HURON          SUNNY     19  15  84 W3        30.61R
CHAMBERLAIN    MOSUNNY   23  20  87 CALM      30.58S
MITCHELL       SUNNY     21  18  88 VRB3      30.61R
YANKTON        SUNNY     25  21  86 N6        30.61R WCI  18
$$

ABBREVIATIONS USED IN REMARKS
   TC - TEMPERATURE IN CELSIUS
  WCI - WIND CHILL INDEX
   HX - HEAT INDEX
  VSB - VISIBILITY




USA.gov is the U.S. government's official web portal to all federal, state and local government web resources and services.